Today's Forecast

Tonight

Tonight: Partly cloudy, with a low around 54. West wind 5 to 7 mph becoming calm  in the evening.
Partly Cloudy


Low: 54 °F

Monday

Monday: Sunny, with a high near 79. Light northwest wind becoming west 5 to 10 mph in the morning.
Sunny


High: 79 °F

Weather Almanac

Today In 2020
High: 82.4°F
Low: 52.0°F

Today in 2019
High: 82.7°F
Low: 53.1°F

Columbia Metro Airport

Apr 18th Weather Records
Astronomical Info

Sunrise:
06:48 am

Sunset:
07:57 pm
Civil Twilight    
Dawn:
06:22 am
Dusk:
08:23 pm
Moonset: 12:12 am
Moonrise: 10:07 am
First Qtr.Apr 20
Full MoonApr 26
Last Qtr.May 03
New MoonMay 11
Current PhaseWaxing Crescent 36%

Site menu:

About:

weather.olc.net provides weather information from NOAA, the National Weather Service, Weather Underground, and current weather data collected outside of Orangeburg, SC near Great Branch.

Regional Weather Roundup
Issued by NWS Columbia, SC


296
ASUS42 KCAE 182010
RWRCAE
REGIONAL WEATHER ROUNDUP
NATIONAL WEATHER SERVICE COLUMBIA SC
400 PM EDT SUN APR 18 2021

NOTE: "FAIR" INDICATES FEW OR NO CLOUDS BELOW 12,000 FEET WITH NO
SIGNIFICANT WEATHER AND/OR OBSTRUCTIONS TO VISIBILITY.

NOT ALL STATIONS ARE QUALITY CONTROLLED BY THE NATIONAL
WEATHER SERVICE. USE DATA WITH CAUTION...ESPECIALLY
DEWPOINT OBSERVATIONS.

SCZ001>059-115-116-135>137-GAZ040-063>065-077-182100-
...UPSTATE SOUTH CAROLINA...

CITY           SKY/WX    TMP DP  RH WIND       PRES   REMARKS
ANDERSON       SUNNY     71  41  33 W6        29.85F
LIBERTY        MOSUNNY   71  40  32 S7        29.84F
SPARTANBURG    SUNNY     70  36  28 CALM      29.84F
CLEMSON        SUNNY     69  40  34 VRB6      29.85F
GREENVILLE     PTSUNNY   72  40  31 SE7       29.85F
GREENWOOD      MOSUNNY   73  41  31 W8        29.85F
GREER          MOSUNNY   72  35  25 SW10      29.85F
ROCK HILL      MOSUNNY   70  42  36 VRB5      29.84F
CHESTER        PTSUNNY   72  36  26 CALM      29.84F


...CENTRAL SOUTH CAROLINA...

CITY           SKY/WX    TMP DP  RH WIND       PRES   REMARKS
COLUMBIA APT   MOSUNNY   76  42  29 N10       29.81F
COLUMBIA OWENS SUNNY     77  42  28 VRB6      29.82F
MCENTIRE ANGB  MOSUNNY   76  42  29 S5        29.79F
ORANGEBURG     MOSUNNY   78  44  29 MISG      29.80F
SUMTER SHAW    SUNNY     78  43  27 W12       29.80F
NEWBERRY       MOSUNNY   72  37  28 W5        29.87F
AIKEN          FAIR      75  43  31 W9        29.84F
BARNWELL       FAIR      79  43  27 W8G14     29.82F
MANNING        FAIR      77  45  31 W6        29.81F
CAMDEN         FAIR      75  41  29 SW8       29.82F
LANCASTER        N/A     73  41  31 CALM      29.83F
WINNSBORO      SUNNY     73  41  31 W5        29.83F


...EASTERN AND COASTAL SOUTH CAROLINA...

CITY           SKY/WX    TMP DP  RH WIND       PRES   REMARKS
MYRTLE BEACH   SUNNY     70  62  76 S13       29.82F
N MYRTLE BCH   SUNNY     69  61  75 S12       29.82F
CONWAY         FAIR      73  48  40 SW3       29.81S
MARION         PTSUNNY   77  46  33 W7        29.82F
HARTSVILLE     FAIR      75  41  29 S5G13     29.82F
FLORENCE       PTSUNNY   75  43  31 NW8       29.81F
DARLINGTON     SUNNY     77  43  29 NW9       29.82F
CHARLESTON APT PTSUNNY   79  51  37 W9        29.80F
MOUNT PLEASANT FAIR      75  57  53 S10       29.81F
WALTERBORO     PTSUNNY   79  46  31 W12G17    29.82F
BEAUFORT       MOSUNNY   81  54  39 SW10      29.81F
HILTON HEAD    MOSUNNY   77  61  57 SW12G21   29.86S


...EASTERN GEORGIA...

CITY           SKY/WX    TMP DP  RH WIND       PRES   REMARKS
AUGUSTA BUSH F MOSUNNY   79  42  26 SW8G20    29.81F
AUGUSTA DANIEL SUNNY     78  43  28 W10       29.83F
THOMSON        SUNNY     75  42  30 W10G17    29.84F
WASHINGTON     FAIR      73  43  33 W10G16    29.84F
CLAXTON        FAIR      79  50  36 SW3       29.82F
SYLVANIA       MOSUNNY   80  46  31 W9        29.83F
STATESBORO     MOSUNNY   78  45  31 NW8       29.82F
SAVANNAH       PTSUNNY   78  54  43 SW10      29.81F


...SOUTHERN NORTH CAROLINA...

CITY           SKY/WX    TMP DP  RH WIND       PRES   REMARKS
CHARLOTTE      MOSUNNY   72  41  32 W8        29.85F
MONROE         MOSUNNY   70  42  36 SW5       29.83F
WADESBORO      PTSUNNY   73  40  30 S5        29.84F
ROCKINGHAM     SUNNY     74  42  31 NW9       29.83F
RUTHERFORDTON  SUNNY     68  37  32 S9        29.85F
ASHEVILLE      MOSUNNY   67  37  33 VRB3      29.85F

$$